Regional Weather Roundup
Issued by NWS

Home | Current Version | Previous Version | Graphics & Text | Print | Product List | Glossary On
Versions: 1 2 3 4 5 6 7 8 9 10 11 12 13 14 15 16 17 18 19 20 21 22 23 24 25 26 27 28 29 30 31 32 33 34 35 36 37 38 39 40 41 42 43 44 45 46 47 48 49 50
000
ASUS43 KDMX 250207
RWRIA

WEATHER ROUNDUP FOR IOWA
NATIONAL WEATHER SERVICE DES MOINES IA
900 PM CDT FRI APR 24 2015

NOTE: "FAIR" INDICATES FEW OR NO CLOUDS BELOW 12,000 FEET WITH NO
SIGNIFICANT WEATHER AND/OR OBSTRUCTIONS TO VISIBILITY.

* - THESE STATIONS ARE NOT NWS STATIONS...THUS NOT UNDER NWS
QUALITY CONTROL.  THEY ALSO DO NOT REPORT WEATHER SUCH
AS PRECIPITATION OR FOG.

IAZ001>003-012>014-020>022-031>034-043>046-250300-
   NORTHWEST IOWA

CITY           SKY/WX    TMP DP  RH WIND       PRES   REMARKS
CARROLL *      CLOUDY    54  50  87 E22       29.62S
CHEROKEE *     CLEAR     54  50  87 SE15      29.62R
DENISON *      CLOUDY    59  54  82 SE10G18   29.57S
LE MARS *      CLOUDY    59  52  77 E13G23    29.57S
ORANGE CITY *  CLEAR     54  48  82 E13G20    29.59R
SHELDON *      CLEAR     52  50  93 E17       29.61R
SIOUX CITY     PTCLDY    64  50  60 SE12      29.54S
SPENCER        CLOUDY    50  46  86 SE20G26   29.65R
STORM LAKE *   PTCLDY    50  48  93 E21       29.63R
$$

IAZ055>058-069>071-079>083-090>094-250300-
   SOUTHWEST IOWA

CITY           SKY/WX    TMP DP  RH WIND       PRES   REMARKS
ATLANTIC *     CLOUDY    57  54  88 E9G15     29.59F
AUDUBON *      CLOUDY    55  52  88 SE9       29.62F
CLARINDA *     CLOUDY    57  54  88 E8        29.61S
COUNCIL BLFS * CLOUDY    57  57 100 SE13      29.56F
CRESTON *      CLOUDY    55  55 100 SE13      29.62S FOG
HARLAN  *      CLOUDY    57  57 100 SE12      29.61F
LAMONI         CLOUDY    56  54  93 E6        29.63F
RED OAK *      CLOUDY    55  55 100 E10       29.57F
SHENANDOAH *   MOCLDY    57  54  88 SE15      29.58F
$$

IAZ047>049-059>061-072>074-084-250300-
   CENTRAL IOWA

CITY           SKY/WX    TMP DP  RH WIND       PRES   REMARKS
AMES           CLOUDY    49  43  80 E13       29.69S
ANKENY *       CLOUDY    50  46  87 E9G15     29.69R
CHARITON *     CLOUDY    54  54 100 E8G15     29.66S FOG
DES MOINES     CLOUDY    52  46  80 E10       29.67R
GRINNELL*      CLOUDY    46  43  87 E13       29.72R
KNOXVILLE *    CLOUDY    52  48  87 E8G14     29.66S
MARSHALLTOWN   CLOUDY    46  42  86 E15       29.71S
PELLA *        CLOUDY    48  48 100 E9        29.70S
PERRY *        CLOUDY    52  46  82 E16       29.65F
$$

IAZ004>006-015-016-023>025-035-036-250300-
   NORTH CENTRAL IOWA

CITY           SKY/WX    TMP DP  RH WIND       PRES   REMARKS
ALGONA *       CLOUDY    46  45  93 SE17G25   29.70R
CLARION *      CLOUDY    46  46 100 E15       29.70S
ESTHERVILLE    CLOUDY    46  43  89 SE17      29.69R
FORT DODGE *   CLOUDY    48  43  81 E18       29.69R
MASON CITY     CLOUDY    45  41  86 SE15      29.75S
FOREST CITY *  CLOUDY    43  41  93 E12G17    29.72S
IOWA FALLS *   CLOUDY    46  43  87 E15       29.72S
$$

IAZ007>011-017>019-026>030-037>042-050>054-066-250300-
   NORTHEAST IOWA

CITY           SKY/WX    TMP DP  RH WIND       PRES   REMARKS
CEDAR RAPIDS   LGT RAIN  45  32  60 E20G26    29.74F
CHARLES CITY * CLOUDY    45  43  93 E17       29.77S
CLINTON *      CLOUDY    45  41  87 E16       29.85F
DECORAH *      CLOUDY    43  39  87 E14G21    29.81R
DUBUQUE        CLOUDY    43  39  86 E14       29.83S
MONTICELLO *   CLOUDY    45  45 100 E14G21    29.79F
OELWEIN *      CLOUDY    45  41  87 E18G25    29.77S
WATERLOO       CLOUDY    46  41  82 E16       29.75R
$$

IAZ064-065-067-068-078-250300-
   EAST CENTRAL IOWA

CITY           SKY/WX    TMP DP  RH WIND       PRES   REMARKS
DAVENPORT      LGT RAIN  46  41  82 E22G29    29.79F
IOWA CITY      CLOUDY    47  43  86 E15G22    29.76F THUNDER
MT. PLEASANT * CLOUDY    59  37  44 SE13      29.72S
MUSCATINE *    CLOUDY    52  43  71 E14G20    29.75S
QUAD CITIES    CLOUDY    50  41  71 E17       29.79F
$$

IAZ062-063-075>077-085>089-095>099-250300-
   SOUTHEAST IOWA

CITY           SKY/WX    TMP DP  RH WIND       PRES   REMARKS
BURLINGTON     CLOUDY    59  36  42 SE10      29.73F
FAIRFIELD *    CLOUDY    54  45  71 E12       29.69S
FORT MADISON * CLOUDY    59  37  44 SE13      29.72F
KEOKUK *       CLOUDY    61  39  44 SE12      29.70S
OSKALOOSA *    CLOUDY    50  46  87 E10       29.70R
CENTERVILLE *  CLOUDY    57  55  94 E6        29.67F
OTTUMWA        CLOUDY    52  47  83 E8        29.68S
WASHINGTON *   CLOUDY    50  50 100 E15       29.71F
$$

ABBREVIATIONS USED IN REMARKS
   TC - TEMPERATURES IN CELSIUS
  WCI - WIND CHILL INDEX
   HX - HEAT INDEX
  VSB - VISIBILITY
$$



USA.gov is the U.S. government's official web portal to all federal, state and local government web resources and services.